Weather History for KOZR - October, 2013

Change the Weather History Date:

Thursday, October 3, 2013

  Actual Average Record
Temperature  
Mean Temperature 75 °F -  
Max Temperature 87 °F 78 °F 91 °F (1999)
Min Temperature 64 °F 59 °F 41 °F (2011)
Cooling Degree Days 10    
Growing Degree Days 25 (Base 50)    
Moisture  
Dew Point 65 °F    
Average Humidity 73    
Maximum Humidity 96    
Minimum Humidity 46    
Precipitation  
Precipitation 0.00 in - - ()
Sea Level Pressure  
Sea Level Pressure 30.07 in    
Wind  
Wind Speed 5 mph (East)    
Max Wind Speed 7 mph    
Max Gust Speed -    
Visibility 10 miles    
Events Rain    
Averages and records for this station are not official NWS values.
T = Trace of Precipitation, MM = Missing Value Source: NWS Daily Summary

Daily Weather History Graph

Daily Weather History Graph

Search for Another Location

Airport or City:

Trip Planner

Search our weather history database for the weather conditions in past years. The results will help you decide how hot, cold, wet, or windy it might be!

Date:

Astronomy

Oct. 03, 2013 Rise Set
Actual Time 6:37 AM CDT 6:25 PM CDT
Civil Twilight 6:13 AM CDT 6:49 PM CDT
Nautical Twilight 5:45 AM CDT 7:17 PM CDT
Astronomical Twilight 5:17 AM CDT 7:45 PM CDT
Moon 5:14 AM CDT (10/3) 5:31 PM CDT (10/3)
Length of Visible Light 12h 35m
Length of Day
11h 47m
Waning Crescent, 2% of the Moon is Illuminated
Oct 3
Waning Crescent
Oct 4
New
Oct 11
First Quarter
Oct 18
Full
Oct 26
Last Quarter

Hourly Weather History & Observations

Time (CDT) Temp. Heat Index Dew Point Humidity Pressure Visibility Wind Dir Wind Speed Gust Speed Precip Events Conditions
12:58 AM 67.8 °F - 65.8 °F 93% 30.07 in 8.0 mi ENE 5.8 mph - N/A   Clear
1:58 AM 66.9 °F - 64.9 °F 93% 30.07 in 10.0 mi ENE 5.8 mph - N/A   Partly Cloudy
2:58 AM 67.8 °F - 64.0 °F 88% 30.05 in 10.0 mi East 4.6 mph - N/A   Mostly Cloudy
3:58 AM 66.4 °F - 63.5 °F 90% 30.05 in 10.0 mi ENE 5.8 mph - N/A   Partly Cloudy
4:58 AM 65.7 °F - 63.7 °F 93% 30.04 in 10.0 mi ENE 5.8 mph - N/A   Clear
5:58 AM 64.9 °F - 63.3 °F 94% 30.06 in 10.0 mi ENE 5.8 mph - N/A   Clear
6:58 AM 64.6 °F - 63.3 °F 96% 30.07 in 10.0 mi NE 3.5 mph - N/A   Clear
7:58 AM 67.6 °F - 64.8 °F 90% 30.09 in 10.0 mi East 5.8 mph - N/A   Clear
8:55 AM 72.7 °F - 66.2 °F 80% 30.10 in 10.0 mi East 5.8 mph - N/A   Clear
9:55 AM 78.8 °F - 63.7 °F 60% 30.11 in 10.0 mi East 5.8 mph - N/A   Clear
10:55 AM 82.4 °F 83.4 °F 62.6 °F 51% 30.12 in 10.0 mi Variable 5.8 mph - N/A   Clear
11:58 AM 84.2 °F 84.8 °F 62.1 °F 47% 30.10 in 10.0 mi East 4.6 mph - N/A   Clear
12:58 PM 85.6 °F 86.3 °F 62.6 °F 46% 30.08 in 10.0 mi ESE 6.9 mph - N/A   Clear
1:58 PM 85.8 °F 86.8 °F 63.7 °F 47% 30.06 in 10.0 mi East 6.9 mph - N/A   Clear
2:58 PM 86.2 °F 87.3 °F 63.9 °F 47% 30.04 in 10.0 mi NE 4.6 mph - N/A   Clear
3:58 PM 85.8 °F 87.1 °F 64.2 °F 48% 30.04 in 10.0 mi SE 5.8 mph - N/A   Partly Cloudy
4:58 PM 84.4 °F 86.6 °F 65.8 °F 54% 30.03 in 10.0 mi ESE 5.8 mph - N/A   Clear
5:58 PM 82.4 °F 84.8 °F 66.9 °F 59% 30.04 in 10.0 mi ESE 2.3 mph - N/A   Clear
6:58 PM 77.9 °F - 68.0 °F 71% 30.05 in 10.0 mi ESE 3.5 mph - N/A   Clear
6:59 PM 77.0 °F - 68.0 °F 74% 30.05 in 10.0 mi East 3.5 mph - N/A Rain Light Rain
7:07 PM 78.8 °F - 66.2 °F 65% 30.05 in 10.0 mi East 4.6 mph - N/A   Clear
7:58 PM 75.9 °F - 68.2 °F 77% 30.06 in 10.0 mi East 3.5 mph - 0.00 in   Clear
8:58 PM 74.8 °F - 68.2 °F 80% 30.08 in 10.0 mi East 3.5 mph - N/A   Clear
9:58 PM 73.0 °F - 68.0 °F 84% 30.08 in 10.0 mi ENE 3.5 mph - N/A   Clear
11:58 PM 71.2 °F - 67.8 °F 89% 30.07 in 10.0 mi NE 2.3 mph - N/A   Clear